SOAR (48851 NORAD) Tracking and Keplerian Element Data

This shows tracking and keplerian element data for the satellite.

Feedback or suggestion? Click here.




ElementValue
Catalog48851
NameSOAR
Epoch Orbit1912
Epoch Day288.0122504
Epoch Year2021
RAAN106.9334
Inclination51.6377
Eccentricity0.0005476
Argument of Perigee221.1684
Mean Anonmoly138.8895
Mean Motion15.5684587
Decay Rate0.00059046
L11 48851U 98067SM 21288.01225040 .00059046 00000-0 80730-3 0 9996
L22 48851 51.6377 106.9334 0005476 221.1684 138.8895 15.56845870 19123

Live tracking and technical data element details for SOAR (NORAD 48851). SOAR can be tracked NOW for your location showing map with azimuth and elevation plus other details from your city location.

Track the satellite on the map from your city or location and see movement details for azimuth, elevation, latitude, longitude, range, height, and movement on the map or in text.







IsCatalogInMostPopularTable: catalog: 48851, numindb: 33
Update: records affected: 1



GetName: 48851 SOAR

Hit Count: updated at: Tue, 19 Oct 2021 08:22:49 GMT